(°C)
-13°
-11°
-9°
-7°
-5°
-5°
-5°
(°C)
-19°
-18°
-16°
-14°
-12°
-12°
-12°
СИ
СИ
СИ
ИСИ
ИСИ
ИСИ
ИСИ
(km/h)
15-23
15-24
16-23
18-25
19-25
20-27
20-27
(mm)
0
0
0
0
0
0
0
(%)
0
0
0
0
0
0
0

Издигане на слънцето

/ -2.8°
sun-icon
UV 1
09:20
17:29
Нарастващ полумесец (45°)
12:53
20:32

METAR за 51.15°С 51.54°И (UARR)

Час Условия Температура/
Точка на оросяване
Вятър Видимост Времето Облаци Налягане Промяна Сурови
VFR °C / °C 20º 4kt >10km - Clouds and Visibility OK 1031 No Significant change UARR 070330Z 02002MPS CAVOK M14/M16 Q1031 NOSIG RMK QFE770/1027
VFR °C / °C 10º 4kt >10km - Clouds and Visibility OK 1031 No Significant change UARR 070300Z 01002MPS CAVOK M14/M15 Q1031 NOSIG RMK QFE770/1027
VFR °C / °C 30º 4kt >10km - Clouds and Visibility OK 1031 No Significant change UARR 070230Z 03002MPS CAVOK M14/M16 Q1031 NOSIG RMK QFE769/1026
VFR °C / °C 40º 4kt >10km - Clouds and Visibility OK 1030 No Significant change UARR 070200Z 04002MPS CAVOK M13/M15 Q1030 NOSIG RMK QFE769/1026
VFR °C / °C 20º 4kt >10km - Clouds and Visibility OK 1030 No Significant change UARR 062300Z 02002MPS CAVOK M13/M15 Q1030 NOSIG RMK QFE769/1025
VFR °C / °C 20º 6kt >10km - Clouds and Visibility OK 1029 No Significant change UARR 062200Z 02003MPS CAVOK M12/M13 Q1029 NOSIG RMK QFE768/1024
VFR °C / °C 20º 6kt >10km - Clouds and Visibility OK 1028 No Significant change UARR 062130Z 02003MPS CAVOK M14/M16 Q1028 NOSIG RMK QFE768/1024
VFR °C / °C 30º 6kt >10km - Clouds and Visibility OK 1028 No Significant change UARR 062100Z 03003MPS CAVOK M14/M15 Q1028 NOSIG RMK QFE768/1024
VFR °C / °C 360º 6kt >10km - Clouds and Visibility OK 1029 No Significant change UARR 062030Z 36003MPS CAVOK M14/M16 Q1029 NOSIG RMK QFE768/1024
VFR °C / °C 360º 6kt >10km - Clouds and Visibility OK 1028 No Significant change UARR 062000Z 36003MPS CAVOK M15/M16 Q1028 NOSIG RMK QFE768/1024
VFR °C / °C 360º 4kt >10km - Clouds and Visibility OK 1028 No Significant change UARR 061930Z 36002MPS CAVOK M14/M15 Q1028 NOSIG RMK QFE768/1024
VFR °C / °C 360º 6kt >10km - Clouds and Visibility OK 1028 No Significant change UARR 061900Z 36003MPS CAVOK M13/M14 Q1028 NOSIG RMK QFE767/1023
VFR °C / °C 350º 8kt >10km - Clouds and Visibility OK 1027 No Significant change UARR 061830Z 35004MPS CAVOK M13/M14 Q1027 NOSIG RMK QFE767/1023
VFR °C / °C 350º 8kt >10km - Clouds and Visibility OK 1027 No Significant change UARR 061800Z 35004MPS CAVOK M13/M14 Q1027 NOSIG RMK QFE767/1022
VFR °C / °C 350º 6kt >10km - Clouds and Visibility OK 1027 No Significant change UARR 061730Z 35003MPS CAVOK M14/M15 Q1027 NOSIG RMK QFE767/1022
VFR °C / °C 360º 6kt >10km - Clouds and Visibility OK 1027 No Significant change UARR 061700Z 36003MPS CAVOK M13/M14 Q1027 NOSIG RMK QFE766/1022
VFR °C / °C 350º 8kt >10km - Clouds and Visibility OK 1027 No Significant change UARR 061630Z 35004MPS CAVOK M11/M13 Q1027 NOSIG RMK QFE766/1022
VFR °C / °C 10º 6kt >10km - Clouds and Visibility OK 1026 No Significant change UARR 061600Z 01003MPS CAVOK M11/M13 Q1026 NOSIG RMK QFE766/1022
VFR °C / °C 360º 8kt >10km - Clouds and Visibility OK 1026 No Significant change UARR 061530Z 36004MPS CAVOK M11/M12 Q1026 NOSIG RMK QFE766/1021
VFR °C / °C 10º 8kt >10km - Clouds and Visibility OK 1025 No Significant change UARR 061500Z 01004MPS CAVOK M11/M12 Q1025 NOSIG RMK QFE766/1021
VFR °C / °C 360º 8kt >10km - Clouds and Visibility OK 1026 No Significant change UARR 061430Z 36004MPS CAVOK M10/M11 Q1026 NOSIG RMK QFE766/1021
VFR °C / °C 360º 8kt >10km - Clouds and Visibility OK 1025 No Significant change UARR 061400Z 36004MPS CAVOK M11/M12 Q1025 NOSIG RMK QFE765/1021
VFR -9°C / °C 360º 8kt >10km - Clouds and Visibility OK 1025 No Significant change UARR 061330Z 36004MPS CAVOK M09/M11 Q1025 NOSIG RMK QFE765/1020
VFR -8°C / -9°C 360º 8kt >10km - Clouds and Visibility OK 1024 No Significant change UARR 061300Z 36004MPS CAVOK M08/M09 Q1024 NOSIG RMK QFE765/1020

VFR

°C / °C

[Още]
Вятър 20º 4kt
Видимост >10km
Времето -
Облаци Clouds and Visibility OK
Налягане 1031
Промяна No Significant change
Сурови UARR 070330Z 02002MPS CAVOK M14/M16 Q1031 NOSIG RMK QFE770/1027

VFR

°C / °C

[Още]
Вятър 10º 4kt
Видимост >10km
Времето -
Облаци Clouds and Visibility OK
Налягане 1031
Промяна No Significant change
Сурови UARR 070300Z 01002MPS CAVOK M14/M15 Q1031 NOSIG RMK QFE770/1027

VFR

°C / °C

[Още]
Вятър 30º 4kt
Видимост >10km
Времето -
Облаци Clouds and Visibility OK
Налягане 1031
Промяна No Significant change
Сурови UARR 070230Z 03002MPS CAVOK M14/M16 Q1031 NOSIG RMK QFE769/1026

VFR

°C / °C

[Още]
Вятър 40º 4kt
Видимост >10km
Времето -
Облаци Clouds and Visibility OK
Налягане 1030
Промяна No Significant change
Сурови UARR 070200Z 04002MPS CAVOK M13/M15 Q1030 NOSIG RMK QFE769/1026

VFR

°C / °C

[Още]
Вятър 20º 4kt
Видимост >10km
Времето -
Облаци Clouds and Visibility OK
Налягане 1030
Промяна No Significant change
Сурови UARR 062300Z 02002MPS CAVOK M13/M15 Q1030 NOSIG RMK QFE769/1025

VFR

°C / °C

[Още]
Вятър 20º 6kt
Видимост >10km
Времето -
Облаци Clouds and Visibility OK
Налягане 1029
Промяна No Significant change
Сурови UARR 062200Z 02003MPS CAVOK M12/M13 Q1029 NOSIG RMK QFE768/1024

VFR

°C / °C

[Още]
Вятър 20º 6kt
Видимост >10km
Времето -
Облаци Clouds and Visibility OK
Налягане 1028
Промяна No Significant change
Сурови UARR 062130Z 02003MPS CAVOK M14/M16 Q1028 NOSIG RMK QFE768/1024

VFR

°C / °C

[Още]
Вятър 30º 6kt
Видимост >10km
Времето -
Облаци Clouds and Visibility OK
Налягане 1028
Промяна No Significant change
Сурови UARR 062100Z 03003MPS CAVOK M14/M15 Q1028 NOSIG RMK QFE768/1024

VFR

°C / °C

[Още]
Вятър 360º 6kt
Видимост >10km
Времето -
Облаци Clouds and Visibility OK
Налягане 1029
Промяна No Significant change
Сурови UARR 062030Z 36003MPS CAVOK M14/M16 Q1029 NOSIG RMK QFE768/1024

VFR

°C / °C

[Още]
Вятър 360º 6kt
Видимост >10km
Времето -
Облаци Clouds and Visibility OK
Налягане 1028
Промяна No Significant change
Сурови UARR 062000Z 36003MPS CAVOK M15/M16 Q1028 NOSIG RMK QFE768/1024

VFR

°C / °C

[Още]
Вятър 360º 4kt
Видимост >10km
Времето -
Облаци Clouds and Visibility OK
Налягане 1028
Промяна No Significant change
Сурови UARR 061930Z 36002MPS CAVOK M14/M15 Q1028 NOSIG RMK QFE768/1024

VFR

°C / °C

[Още]
Вятър 360º 6kt
Видимост >10km
Времето -
Облаци Clouds and Visibility OK
Налягане 1028
Промяна No Significant change
Сурови UARR 061900Z 36003MPS CAVOK M13/M14 Q1028 NOSIG RMK QFE767/1023

VFR

°C / °C

[Още]
Вятър 350º 8kt
Видимост >10km
Времето -
Облаци Clouds and Visibility OK
Налягане 1027
Промяна No Significant change
Сурови UARR 061830Z 35004MPS CAVOK M13/M14 Q1027 NOSIG RMK QFE767/1023

VFR

°C / °C

[Още]
Вятър 350º 8kt
Видимост >10km
Времето -
Облаци Clouds and Visibility OK
Налягане 1027
Промяна No Significant change
Сурови UARR 061800Z 35004MPS CAVOK M13/M14 Q1027 NOSIG RMK QFE767/1022

VFR

°C / °C

[Още]
Вятър 350º 6kt
Видимост >10km
Времето -
Облаци Clouds and Visibility OK
Налягане 1027
Промяна No Significant change
Сурови UARR 061730Z 35003MPS CAVOK M14/M15 Q1027 NOSIG RMK QFE767/1022

VFR

°C / °C

[Още]
Вятър 360º 6kt
Видимост >10km
Времето -
Облаци Clouds and Visibility OK
Налягане 1027
Промяна No Significant change
Сурови UARR 061700Z 36003MPS CAVOK M13/M14 Q1027 NOSIG RMK QFE766/1022

VFR

°C / °C

[Още]
Вятър 350º 8kt
Видимост >10km
Времето -
Облаци Clouds and Visibility OK
Налягане 1027
Промяна No Significant change
Сурови UARR 061630Z 35004MPS CAVOK M11/M13 Q1027 NOSIG RMK QFE766/1022

VFR

°C / °C

[Още]
Вятър 10º 6kt
Видимост >10km
Времето -
Облаци Clouds and Visibility OK
Налягане 1026
Промяна No Significant change
Сурови UARR 061600Z 01003MPS CAVOK M11/M13 Q1026 NOSIG RMK QFE766/1022

VFR

°C / °C

[Още]
Вятър 360º 8kt
Видимост >10km
Времето -
Облаци Clouds and Visibility OK
Налягане 1026
Промяна No Significant change
Сурови UARR 061530Z 36004MPS CAVOK M11/M12 Q1026 NOSIG RMK QFE766/1021

VFR

°C / °C

[Още]
Вятър 10º 8kt
Видимост >10km
Времето -
Облаци Clouds and Visibility OK
Налягане 1025
Промяна No Significant change
Сурови UARR 061500Z 01004MPS CAVOK M11/M12 Q1025 NOSIG RMK QFE766/1021

VFR

°C / °C

[Още]
Вятър 360º 8kt
Видимост >10km
Времето -
Облаци Clouds and Visibility OK
Налягане 1026
Промяна No Significant change
Сурови UARR 061430Z 36004MPS CAVOK M10/M11 Q1026 NOSIG RMK QFE766/1021

VFR

°C / °C

[Още]
Вятър 360º 8kt
Видимост >10km
Времето -
Облаци Clouds and Visibility OK
Налягане 1025
Промяна No Significant change
Сурови UARR 061400Z 36004MPS CAVOK M11/M12 Q1025 NOSIG RMK QFE765/1021

VFR

-9°C / °C

[Още]
Вятър 360º 8kt
Видимост >10km
Времето -
Облаци Clouds and Visibility OK
Налягане 1025
Промяна No Significant change
Сурови UARR 061330Z 36004MPS CAVOK M09/M11 Q1025 NOSIG RMK QFE765/1020

VFR

-8°C / -9°C

[Още]
Вятър 360º 8kt
Видимост >10km
Времето -
Облаци Clouds and Visibility OK
Налягане 1024
Промяна No Significant change
Сурови UARR 061300Z 36004MPS CAVOK M08/M09 Q1024 NOSIG RMK QFE765/1020

TAF за 51.15°С 51.54°И (UARR)

From till


From till Wind 60º 10kt. Visibility 10km or more. Scattered Clouds 3300ft.
Temporarly from till Wind 30º 8kt. Visibility 3100m. Mist . Broken Clouds 1100ft.
Temporarly from till Wind 80º 10kt. Gust 19kt.

Сурови: TAF UARR 070201Z 0703/0712 06005MPS 9999 SCT033 TEMPO 0703/0707 03004MPS 3100 BR BKN011 TEMPO 0707/0712 08005G10MPS

Радар и валежи в момента за 51.15°С 51.54°И

Ситен дъжд
Лек
Умерен
Тежък
Много тежък
Аве

Маркерът за локация обозначава 51.15°С 51.54°И. Анимацията показва Радара за валежи за последния час, както и прогноза за 1h. Дъждът или лекият сняг може да са невидими за радара. Интензивността на валежите е обозначена с цветни кодове, вариращи от светлосиньо до оранжево.

Актуални сателитни и дъждовни снимки за 51.15°С 51.54°И

Маркерът за локация е поставен върху 51.15°С 51.54°И. [Още]

Сателитното изображение в реално време съчетава видимата светлина през деня с инфрачервеното лъчение през нощта. През нощта изображението не е тъмно, тъй като инфрачервеното лъчение може да открива температурни разлики. За съжаление ниските облаци и мъглата са трудни за разграничаване от температурите на земята и затова могат да бъдат почти невидими през нощта. Сателитните изображения на Meteosat за Европа се актуализират в реално време на всеки 5 минути. Изображенията GOES-16/GOES-17 (Северна и Южна Америка) и Химавари (Азия) се актуализират на всеки 10 минути.

Всички права запазени 2021 EUMETSAT / meteoblue. / Всички права запазени 2021 meteoblue